STARLINK-4434, 53501

Orbit data source: Space-Track

STARLINK-4434, 53501 is a payload satellite owned by SpaceX/Seattle (US) in SSO that was launched on Fri, 12 Aug 2022 UTC via an FALCON 9 launch vehicle from the Air Force Western Test Range (AFWTR). Payload-class satellites include a variety of spacecraft equipped with specific instruments for various scientific and technological missions. These include communications satellites like Starlink; space stations such as the ISS; scientific satellites like the Hubble; Earth observation satellites from companies like Planet Labs, Umbra, and HawkEye 360; GPS; miniature CubeSats for education and research; and military/defense satellites.

Loading next visibility...
Identifier
53501, 2022-099AN
Orbit
SSO
Country
Flag of USUS
Related business
Manufacturer
SpaceX/Seattle
Mission
Operational Commercial Communications
Bus & Motor
STARLINK, Unknown motor
Mass
300 kg wet, ~275 kg dry
Launch date (UTC)
2022-08-12 (3 years ago)
Launch vehicle
FALCON 9
Launch site
Air Force Western Test Range (AFWTR)
Object type
Payload
Rocket body
Debris
Shape & HBR
Box + 1 Pan, 4.4 m
Radar Cross Section
13.562 m², Large (>1 m²)

Expand to show TLE details & history
Last TLE update: 18 hours ago

TLE from 18 hours ago
0 STARLINK-4434
1 53501U 22099AN  25258.90776049  .00000526  00000-0  45517-4 0  9999
2 53501  97.6004  19.1011 0001970 170.7134 189.4128 15.01259610169767
Epoch: 2025-09-15T21:47Z
TLE epoch observation values (Epoch: 2025-09-15T21:47:10.506Z)
Latitude
0.00007°
Longitude
57.20164°
Altitude
567.42 km
Speed
7.577 km/s
True Right ascension
01h 16m 24s
True Declination
0° 00' 00"
Sunlit
Object was in full shadow at epoch
Visualization orbit readout
Latitude
Unknown
Longitude
Unknown
Altitude
Unknown
Speed
Unknown
Apparent Right ascension
Unknown
Apparent Declination
Unknown
Sunlit
N/A
Visualization observer readout
Local Sidereal Time
08:15:15
Azimuth
Unknown
Elevation
Unknown
Doppler factor
Unknown
Orbital elements
Apogee altitude
561.377 km
Perigee altitude
558.643 km
Semi-major axis
6,938.147 km
Eccentricity
0.0002
Inclination
97.6004°
RAAN
19.1011°
Arg. of periapsis
170.7134°
True anomaly
189.40911°
Mean anomaly
189.4128°
Eccentric anomaly
189.41095°
Mean motion
3.75559 °/min
Orbital period
95.86 mins
BSTAR
0.000045517
Loading maneuver chart data...
Computing Atmospheric mass density...
Loading historical data...
Loading historical data...
Loading historical data...
Loading historical data...
Loading historical data...
Loading historical data...
Loading historical data...

Documentation

Showing up to 5 results
|